Location: ????????
(55.2833°N, 38.7167°E)
Time: 15:29:20
(UTC+00:00)

Daily predictions for brighter satellites

Satellite Brightness Start Highest point End
(mag) Time Altitude Azimuth Time Altitude Azimuth Time Altitude Azimuth
SL-16 R/B 2.3 13:32:03 10° NW 13:37:48 90° WSW 13:43:29 10° SSE
CZ-2C R/B 2.8 13:32:35 10° NNE 13:37:55 77° WNW 13:43:07 10° SSW
RESURS DK-1 4.0 13:43:00 10° NNW 13:45:42 17° NNE 13:48:23 10° ENE
Cosmos 1140 Rocket 4.0 13:40:53 10° NNW 13:45:43 36° NE 13:50:28 10° ESE
Spot 4 Rocket 4.2 13:42:43 10° SSE 13:47:51 83° WSW 13:53:02 10° NNW
SAR-Lupe-2 3.7 13:45:17 10° SE 13:48:45 50° ENE 13:52:15 10° N
SL-24 R/B - RUBIN 2 4.4 13:43:15 10° SW 13:48:46 75° SE 13:55:01 10° NE
Cosmos 2279 Rocket 4.1 13:43:07 10° N 13:49:19 59° ENE 13:55:27 10° SSE
Cosmos 1943 3.4 13:44:17 10° NNW 13:49:45 48° NE 13:55:13 10° ESE
Meteor 1-31 Rocket 3.5 13:47:41 10° SE 13:50:54 29° ENE 13:54:10 10° N
SL-08 RB Rocket 3.6 13:48:21 10° SSE 13:52:50 79° ENE 13:57:23 10° NNW
Cosmos 1666 3.3 13:50:12 10° N 13:53:22 30° ENE 13:56:31 10° SE
Helios 1B rocket 2.3 13:56:50 10° SSE 14:00:45 78° ENE 14:04:43 10° NNW
Cosmos 2150 Rocket 4.0 13:55:46 10° SSW 14:00:55 83° ESE 14:06:12 10° NNE
Cosmos 2058 Rocket 3.6 13:58:44 10° SSE 14:02:51 39° E 14:06:57 10° NNE
Cosmos 1602 4.3 14:00:05 10° N 14:03:29 33° ENE 14:06:53 10° SE
CZ-4B R/B 4.1 14:00:13 10° SE 14:03:33 37° ENE 14:06:58 10° N
Cosmos 2297 Rocket 2.4 13:58:29 10° SW 14:04:09 78° NW 14:09:52 10° NNE
Cosmos 2151 2.9 14:03:36 10° N 14:07:54 75° ENE 14:12:10 10° SSE
Cosmos 2219 3.4 14:03:48 10° S 14:09:14 53° ESE 14:14:43 10° NE
ATLAS 2AS CENTAUR R/B 3.0 14:02:25 10° NW 14:09:23 52° NNE 14:15:59 10° E
Cosmos-2242 4.4 14:06:36 10° SE 14:09:42 19° E 14:12:38 11° NE
Cosmos 44 4.2 14:05:59 10° NW 14:11:22 61° SW 14:16:30 10° SSE
Cosmos 1606 Rocket 3.6 14:06:58 10° SSW 14:11:25 85° WNW 14:15:52 10° N
AQUARIUS 4.4 14:07:59 10° SE 14:12:15 47° ENE 14:16:34 10° N
Cosmos 1726 Rocket 3.5 14:08:18 10° S 14:12:44 79° E 14:17:11 10° NNE
Cosmos 1606 3.0 14:11:01 10° SSW 14:14:38 65° WNW 14:18:17 10° N
Lacrosse 4 Rocket 1.4 14:13:23 10° NW 14:17:46 65° NE 14:22:02 10° SE
Cosmos 2228 4.4 14:14:13 10° SW 14:18:16 38° WNW 14:22:21 10° N
ERS-2 2.6 14:16:23 10° S 14:19:14 48° WSW 14:22:06 10° NNW
USA 307 3.9 14:18:37 10° W 14:22:15 40° SSW 14:25:52 10° SE
CZ-4B R/B 3.8 14:17:56 10° SE 14:22:41 43° ENE 14:27:19 10° N
Cosmos 1833 Rocket 4.1 14:19:36 10° NNW 14:23:48 21° NNE 14:26:35 15° ENE
Cosmos 1862 4.3 14:20:11 10° NNW 14:23:58 49° W 14:27:45 10° S
Cosmos 1500 2.9 14:20:37 10° N 14:24:11 82° E 14:27:43 10° SSE
Cosmos 2298 Rocket 4.3 14:19:30 10° SW 14:24:48 70° WNW 14:30:10 10° NNE
Cosmos 2082 4.1 14:19:53 10° S 14:25:12 46° ESE 14:29:56 13° NE
Cosmos 1544 3.3 14:23:46 10° NNW 14:27:01 61° W 14:30:13 10° S
Cosmos 407 Rocket 3.6 14:22:58 10° NNW 14:28:03 51° NE 14:33:03 10° SE
Cosmos 405 Rocket 2.6 14:25:54 10° S 14:29:42 80° ESE 14:33:35 10° NNE
Cosmos 2251 Rocket 3.6 14:25:55 10° NNW 14:31:12 57° ENE 14:36:29 10° SE
Tsikada Rocket 4.5 14:29:59 10° SSW 14:36:09 63° WNW 14:42:18 10° N
Cosmos 2084 4.4 14:32:46 10° WNW 14:36:11 30° NNW 14:38:20 18° NE
YAOGAN 1 3.7 14:37:03 19° E 14:38:12 22° ENE 14:41:29 10° N
ADEOS Rocket 4.3 14:38:49 16° NE 14:39:27 16° NE 14:42:57 10° N
ATLAS CENTAUR R/B 3.2 14:42:34 10° WNW 14:46:17 51° SSW 14:53:12 10° SE
NOSS 3-3 (C) 4.2 14:43:06 10° WSW 14:48:57 68° NNW 14:54:09 18° NE
NOSS 3-3 (A) 4.2 14:43:30 10° WSW 14:49:18 67° NNW 14:54:28 18° NE
Cosmos 1238 Rocket 4.2 14:46:33 10° SW 14:49:39 30° WNW 14:52:29 10° N
USA 234 4.1 14:47:21 19° E 14:51:14 33° SE 14:57:01 10° SSW
SMAP 3.4 14:47:26 10° S 14:52:04 68° WSW 14:56:45 10° NNW
CZ-4B R/B 4.4 14:51:36 21° ENE 14:52:24 22° NE 14:56:34 10° N
Cosmos 1076 Rocket 4.4 14:48:12 10° NNW 14:52:28 53° W 14:56:41 10° S
Cosmos 2263 Rocket 2.2 14:48:33 10° SSW 14:54:02 62° ESE 14:58:00 19° NE
Meteor 1-20 Rocket 4.1 14:48:39 10° NNW 14:54:13 75° ENE 14:59:52 10° SSE
SL-16 R/B 4.1 14:49:38 10° N 14:55:03 31° NW 15:00:26 10° WSW
Cosmos 1844 Rocket 4.1 14:51:35 10° SE 14:54:56 18° ESE 14:54:56 18° ESE
Cosmos 1607 4.0 14:50:34 10° SW 14:56:56 80° SE 15:01:30 21° NE
Cosmos 2082 Rocket 3.8 14:54:36 10° NNW 14:58:25 18° NNE 14:59:57 16° NE
ISS -0.8 14:56:52 10° WSW 14:58:49 15° SSW 15:00:45 10° S
Cosmos 1190 Rocket 4.1 14:53:44 10° NNW 14:58:59 55° NE 15:04:11 10° SE
Cosmos 2227 Rocket 2.7 14:54:43 10° SW 15:00:18 58° NW 15:05:06 14° NNE
Cosmos 1812 2.8 14:57:11 10° SSE 15:00:43 45° E 15:01:54 32° NE
CZ-2C R/B 4.3 14:58:16 10° SSW 15:01:34 35° W 15:04:55 10° NNW
USA 305 4.3 15:00:38 10° W 15:04:02 31° SSW 15:07:26 10° SSE
Lacrosse 5 3.7 15:01:32 10° SSE 15:04:09 14° SE 15:04:09 14° SE
Cosmos 1603 3.7 15:03:07 10° NW 15:08:52 84° WSW 15:14:32 10° SSE
Cosmos 1812 Rocket 3.6 15:05:54 10° S 15:10:05 51° E 15:12:16 26° NNE
CZ-4B R/B 3.4 15:13:58 37° E 15:14:38 40° ENE 15:18:34 10° N
Helios 1A 2.9 15:17:34 33° NE 15:19:15 60° ESE 15:23:21 10° S
ADEOS 3.5 15:15:13 10° SSE 15:20:23 67° ENE 15:25:35 10° NNW
DMSP B5D2-2 4.5 15:18:34 10° N 15:23:44 64° WNW 15:28:53 10° SSW
RESURS DK-1 2.4 15:20:22 10° NNW 15:24:25 52° NE 15:24:41 51° ENE
Meteor 1-31 Rocket 4.4 15:21:27 10° SSW 15:24:51 34° W 15:28:18 10° NNW
Cosmos 1553 Rocket 4.1 15:21:28 10° N 15:27:39 50° ENE 15:33:42 10° SE
Cosmos 1140 Rocket 4.3 15:22:39 10° NW 15:27:42 52° WSW 15:32:40 10° S
Cosmos 1943 4.3 15:28:29 10° NW 15:33:50 45° WSW 15:39:08 10° S
COSMO-SKYMED 1 2.5 15:34:01 55° ENE 15:34:27 58° E 15:38:44 10° S
Meteor PRIRODA 4.3 15:37:17 39° N 15:37:17 39° N 15:39:35 10° NNW
Radarsat Rocket 4.2 15:32:24 10° SSE 15:38:13 73° WSW 15:44:27 10° NNW
Cosmos 44 Rocket 4.0 15:33:28 10° NW 15:38:25 39° NNE 15:38:51 39° NE
Cosmos 1782 3.4 15:36:40 10° S 15:39:26 42° SSE 15:39:26 42° SSE
Cosmos 220 Rocket 3.9 15:36:33 10° NNW 15:40:55 84° WSW 15:43:00 30° SSE
Cosmos 2026 Rocket 3.9 15:35:48 10° S 15:42:00 67° E 15:48:20 10° NNE
Cosmos 2344 3.6 15:37:10 10° SSW 15:44:19 54° SE 15:46:46 39° ENE
Cosmos-2242 3.4 15:42:21 10° SSW 15:46:39 63° WNW 15:49:19 22° N
CZ-4B DEB 4.1 15:41:50 12° SSE 15:46:59 68° ENE 15:52:32 10° NNW
Cosmos 2195 Rocket 4.4 15:42:27 10° S 15:48:46 83° E 15:55:05 10° NNE
Cosmos 2297 Rocket 3.8 15:44:19 10° W 15:49:04 27° NNW 15:52:17 17° NNE
SME Rocket 4.4 15:46:28 10° SSE 15:52:29 84° ENE 16:02:02 10° NNW
Cosmos 676 Rocket 3.9 15:47:19 10° NNW 15:52:42 82° ENE 15:54:33 42° SE
Cosmos 2219 4.2 15:48:14 10° WSW 15:53:33 42° NW 15:56:44 23° NNE
Lacrosse 4 Rocket 3.8 15:52:18 10° WNW 15:55:50 24° WSW 15:59:17 10° SSW
Meteor 1-14 Rocket 4.2 15:51:51 10° N 15:56:58 56° NE 15:56:58 56° NE
Cosmos 1092 Rocket 3.8 15:51:49 10° S 15:57:57 84° E 16:04:09 10° NNE
Nadezhda 4 Rocket 4.4 15:53:21 10° SSW 15:59:25 60° WNW 16:05:28 10° N
Meteor 2-2 Rocket 4.3 15:54:41 10° SSW 16:00:28 81° WNW 16:05:36 14° NNE
ATLAS 2AS CENTAUR R/B 2.8 15:53:44 10° NW 16:00:44 75° SW 16:04:21 29° SE
SL-08 R/B 3.6 16:03:18 53° S 16:03:18 53° S 16:06:55 10° S
Cosmos 1844 4.4 15:57:32 10° S 16:01:34 38° SSE 16:01:34 38° SSE
Cosmos 1766 Rocket 3.7 16:04:23 10° NNW 16:08:34 71° WNW 16:08:34 71° WNW
Cosmos 1833 Rocket 3.1 16:03:35 10° NNW 16:08:17 46° NNE 16:08:17 46° NNE
Cosmos 2082 4.5 16:03:56 10° WSW 16:09:21 47° NW 16:11:47 30° N
PAYLOAD B 4.1 16:09:13 65° SE 16:09:58 76° ENE 16:15:34 10° NNW
Cosmos 1417 Rocket 4.4 16:05:44 10° N 16:12:01 67° ENE 16:12:43 62° ESE
YAOGAN 1 2.9 16:14:07 64° WNW 16:14:07 64° WNW 16:18:09 10° NNW
IGS 5A 4.3 16:15:42 44° NW 16:15:42 44° NW 16:18:43 10° NNW
SKYMED 2 4.2 16:22:38 55° WNW 16:22:38 55° WNW 16:26:47 10° SW
ADEOS Rocket 3.6 16:25:45 39° N 16:25:45 39° N 16:29:35 10° NNW
Meteor 1-26 Rocket 4.2 16:22:30 10° SSW 16:27:39 77° S 16:27:39 77° S
CZ-4B R/B 3.6 16:33:29 57° N 16:33:29 57° N 16:37:55 10° NNW
USA 234 3.1 16:34:42 72° SE 16:34:58 73° SSE 16:41:31 10° WSW
Cosmos 2263 Rocket 3.3 16:33:08 10° WSW 16:38:18 37° NW 16:39:42 32° N
Cosmos 1844 Rocket 3.3 16:32:45 10° SSW 16:36:37 47° SSW 16:36:37 47° SSW
Cosmos 1818 4.0 16:34:42 10° SW 16:38:57 56° SW 16:38:57 56° SW
Cosmos 2082 Rocket 3.7 16:38:57 10° NNW 16:41:47 26° N 16:41:47 26° N
Cosmos 2227 Rocket 4.0 16:41:10 10° WNW 16:45:33 22° NNW 16:46:54 21° N
Lacrosse 5 3.6 16:41:19 10° SW 16:43:23 24° SSW 16:43:23 24° SSW
Cosmos 2297 Rocket 4.5 17:31:33 10° NW 17:34:04 16° NNW 17:34:04 16° NNW
ATLAS 2AS CENTAUR R/B 4.4 17:45:31 10° WNW 17:50:36 23° WSW 17:51:50 21° SW
Cosmos 2344 4.2 17:51:26 10° WSW 17:56:47 48° WNW 17:56:47 48° WNW
